This is the latest recevied weather packets stored in our database for station/object KF7SOJ. If no packets are shown the sender has not sent any weather packets the latest 10 day(s).
| Time | Temp. | Humidity | Pressure | Rain* | Wind** | Luminosity | Snow |
|---|---|---|---|---|---|---|---|
| 1788457558 | 26.67° C | 21% | 927.2 hPa | 0 mm | - | 771 W/m² | - |
| 1788457253 | 26.11° C | 22% | 927.2 hPa | 0 mm | - | 764 W/m² | - |
| 1788456948 | 26.11° C | 22% | 927.2 hPa | 0 mm | - | 756 W/m² | - |
| 1788456645 | 26.11° C | 21% | 927.3 hPa | 0 mm | - | 747 W/m² | - |
| 1788456344 | 25.56° C | 21% | 927.4 hPa | 0 mm | - | 737 W/m² | - |
| 1788456040 | 25.56° C | 22% | 927.3 hPa | 0 mm | - | 727 W/m² | - |
| 1788455735 | 25.56° C | 21% | 927.4 hPa | 0 mm | - | 715 W/m² | - |
| 1788455430 | 25.56° C | 22% | 927.4 hPa | 0 mm | - | 705 W/m² | - |
| 1788455129 | 25° C | 22% | 927.3 hPa | 0 mm | - | 691 W/m² | - |
| 1788454825 | 25° C | 22% | 927.3 hPa | 0 mm | - | 681 W/m² | - |
| 1788454522 | 25.56° C | 23% | 927.5 hPa | 0 mm | - | 668 W/m² | - |
| 1788454218 | 25° C | 23% | 927.3 hPa | 0 mm | - | 654 W/m² | - |
| 1788453918 | 25° C | 23% | 927.4 hPa | 0 mm | - | 640 W/m² | - |
| 1788453613 | 24.44° C | 22% | 927.3 hPa | 0 mm | - | 627 W/m² | - |
| 1788453309 | 25° C | 23% | 927.1 hPa | 0 mm | - | 612 W/m² | - |
| 1788453005 | 23.89° C | 24% | 927.1 hPa | 0 mm | - | 599 W/m² | - |
| 1788452701 | 22.78° C | 32% | 927.2 hPa | 0 mm | - | 573 W/m² | - |
| 1788452396 | 22.78° C | 32% | 927.2 hPa | 0 mm | - | 569 W/m² | - |
| 1788452091 | 22.78° C | 33% | 927.2 hPa | 0 mm | - | 555 W/m² | - |
| 1788451802 | 23.33° C | 33% | 927.4 hPa | 0 mm | - | 542 W/m² | - |
| 1788451486 | 22.78° C | 33% | 927.2 hPa | 0 mm | - | 527 W/m² | - |
| 1788451185 | 22.22° C | 34% | 927.3 hPa | 0 mm | - | 512 W/m² | - |
| 1788450880 | 22.78° C | 33% | 927.3 hPa | 0 mm | - | 505 W/m² | - |
| 1788450576 | 22.78° C | 29% | 927.4 hPa | 0 mm | - | 501 W/m² | - |
| 1788450271 | 22.78° C | 30% | 927.5 hPa | 0 mm | - | 487 W/m² | - |
* Rain latest hour (hover to see other rain measurements)
** Current wind speed in m/s (hover to see current wind gust speed)